Weather History for KIML - September, 2012

Change the Weather History Date:

Tuesday, September 25, 2012

  Actual Average Record
Temperature  
Mean Temperature 63 °F 60 °F  
Max Temperature 77 °F 75 °F 94 °F (1936)
Min Temperature 49 °F 46 °F 19 °F (1942)
Degree Days  
Heating Degree Days 2 6  
Month to date heating degree days 48 72  
Cooling Degree Days 0 1  
Month to date cooling degree days 104 85  
Year to date cooling degree days 1376 951  
Growing Degree Days 12 (Base 50)    
Moisture  
Dew Point 45 °F    
Average Humidity 54    
Maximum Humidity 74    
Minimum Humidity 33    
Precipitation  
Precipitation 0.00 in 0.04 in 1.61 in (1996)
Sea Level Pressure  
Sea Level Pressure 29.89 in    
Wind  
Wind Speed 6 mph (ENE)    
Max Wind Speed 14 mph    
Max Gust Speed 17 mph    
Visibility 10 miles    
Events      
T = Trace of Precipitation, MM = Missing Value Source: NWS Daily Summary

Daily Weather History Graph

Daily Weather History Graph

Search for Another Location

Airport or City:

Trip Planner

Search our weather history database for the weather conditions in past years. The results will help you decide how hot, cold, wet, or windy it might be!

Date:

Astronomy

Sep. 25, 2012 Rise Set
Actual Time 6:37 AM MDT 6:37 PM MDT
Civil Twilight 6:10 AM MDT 7:04 PM MDT
Nautical Twilight 5:38 AM MDT 7:36 PM MDT
Astronomical Twilight 5:06 AM MDT 8:08 PM MDT
Moon 4:04 PM MDT (9/25) 2:00 AM MDT (9/25)
Length of Visible Light 12h 54m
Length of Day
12h 00m
Waxing Gibbous, 80% of the Moon is Illuminated
Sep 25
Waxing Gibbous
Sep 29
Full
Oct 8
Last Quarter
Oct 15
New
Oct 21
First Quarter

Hourly Weather History & Observations

Time (MDT) Temp. Dew Point Humidity Pressure Visibility Wind Dir Wind Speed Gust Speed Precip Events Conditions
12:53 AM 55.0 °F 43.0 °F 64% 29.86 in 10.0 mi Calm Calm - N/A   Partly Cloudy
1:53 AM 57.0 °F 44.1 °F 62% 29.88 in 10.0 mi NNW 10.4 mph - N/A   Overcast
2:53 AM 57.0 °F 44.1 °F 62% 29.83 in 10.0 mi North 8.1 mph - N/A   Clear
3:53 AM 55.9 °F 44.1 °F 64% 29.82 in 10.0 mi NNE 5.8 mph - N/A   Scattered Clouds
4:53 AM 55.9 °F 45.0 °F 67% 29.84 in 10.0 mi South 8.1 mph - N/A   Mostly Cloudy
5:53 AM 52.0 °F 43.0 °F 71% 29.86 in 10.0 mi Calm Calm - N/A   Clear
6:53 AM 50.0 °F 42.1 °F 74% 29.88 in 10.0 mi Calm Calm - N/A   Clear
7:53 AM 55.9 °F 45.0 °F 67% 29.90 in 10.0 mi NNW 4.6 mph - N/A   Clear
8:53 AM 63.0 °F 46.0 °F 54% 29.92 in 10.0 mi Calm Calm - N/A   Clear
9:53 AM 64.9 °F 46.9 °F 52% 29.93 in 10.0 mi North 3.5 mph - N/A   Partly Cloudy
10:53 AM 66.9 °F 46.0 °F 47% 29.93 in 10.0 mi East 6.9 mph - N/A   Mostly Cloudy
11:53 AM 72.0 °F 46.9 °F 41% 29.91 in 10.0 mi ESE 8.1 mph - N/A   Partly Cloudy
1:53 PM 72.0 °F 46.9 °F 41% 29.88 in 10.0 mi ESE 8.1 mph - N/A   Clear
2:53 PM 75.0 °F 44.1 °F 33% 29.86 in 10.0 mi ESE 11.5 mph - N/A   Partly Cloudy
3:53 PM 75.9 °F 46.0 °F 35% 29.86 in 10.0 mi SE 8.1 mph - N/A   Clear
4:53 PM 75.9 °F 46.0 °F 35% 29.86 in 10.0 mi ESE 11.5 mph - N/A   Scattered Clouds
5:53 PM 73.9 °F 46.0 °F 37% 29.87 in 10.0 mi East 11.5 mph - N/A   Scattered Clouds
6:53 PM 64.9 °F 45.0 °F 48% 29.89 in 10.0 mi East 4.6 mph - N/A   Partly Cloudy
7:53 PM 61.0 °F 46.0 °F 58% 29.92 in 10.0 mi Calm Calm - N/A   Clear
8:53 PM 57.0 °F 44.1 °F 62% 29.94 in 9.0 mi North 6.9 mph - N/A   Overcast
9:53 PM 57.0 °F 45.0 °F 64% 29.94 in 10.0 mi NNE 4.6 mph - N/A   Partly Cloudy
10:53 PM 57.2 °F 46.4 °F 67% 29.98 in 10.0 mi North 6.9 mph - N/A   Mostly Cloudy
11:53 PM 54.0 °F 45.0 °F 72% 29.94 in 10.0 mi WNW 5.8 mph - N/A   Clear